GLOBALSTAR M001 1 25162U 98008A 26072.56058186 -.00000049 00000+0 36442-3 0 9992 2 25162 52.0020 269.1799 0002351 100.1089 294.2614 12.38229825277084 GLOBALSTAR M004 1 25163U 98008B 26072.91658841 -.00000061 00000+0 23764-3 0 9993 2 25163 52.0018 311.2619 0003277 155.4961 217.5844 12.63416774295781 GLOBALSTAR M002 1 25164U 98008C 26072.86840810 -.00000068 00000+0 15942-3 0 9993 2 25164 52.0012 284.0227 0000486 292.8671 67.2098 11.61515329215406 GLOBALSTAR M003 1 25165U 98008D 26072.89367697 -.00000199 00000+0 -11689-2 0 9993 2 25165 51.9847 141.4885 0008671 114.6484 57.2688 12.12023482265921 GLOBALSTAR M014 1 25306U 98023A 26072.78571684 -.00000080 00000+0 -42726-4 0 9995 2 25306 51.9825 201.7798 0001786 127.1105 20.9068 11.65485031222602 GLOBALSTAR M006 1 25307U 98023B 26072.82121282 -.00000041 00000+0 70586-3 0 9996 2 25307 51.9923 264.2455 0002394 225.0457 148.4616 11.58178019248071 GLOBALSTAR M015 1 25308U 98023C 26072.94590948 -.00000057 00000+0 37273-3 0 9992 2 25308 51.9861 14.7676 0012469 195.2924 248.9852 11.48861048225081 GLOBALSTAR M008 1 25309U 98023D 26072.93660664 -.00000097 00000+0 -56860-5 0 9995 2 25309 51.9955 135.9724 0002587 34.3821 136.5888 12.36081513271200 GLOBALSTAR M023 1 25621U 99004A 26072.91588460 -.00000053 00000+0 28490-3 0 9990 2 25621 52.0119 312.1034 0009965 7.1135 5.7083 12.62518903249809 GLOBALSTAR M040 1 25622U 99004B 26072.99580093 -.00000058 00000+0 25314-3 0 9990 2 25622 51.9930 316.4113 0000112 306.5882 67.6626 12.62029814249329 GLOBALSTAR M036 1 25623U 99004C 26072.86888267 -.00000042 00000+0 59779-3 0 9996 2 25623 51.9950 249.4828 0010206 204.3971 301.8249 11.86620941210997 GLOBALSTAR M038 1 25624U 99004D 26072.98491268 -.00000077 00000+0 14896-3 0 9990 2 25624 52.0005 14.5725 0001288 260.2597 177.1240 12.32542189235646 GLOBALSTAR M022 1 25649U 99012A 26072.87659593 -.00000025 00000+0 73993-3 0 9997 2 25649 52.0030 277.7571 0002560 3.0226 10.3708 12.02511085208824 GLOBALSTAR M041 1 25650U 99012B 26071.58902804 -.00000113 00000+0 -35084-3 0 9990 2 25650 52.0014 170.8889 0002003 129.2451 230.8563 11.96683982210410 GLOBALSTAR M046 1 25651U 99012C 26072.79248153 -.00000101 00000+0 -13898-3 0 9991 2 25651 52.0043 218.2761 0002584 80.9655 67.2578 12.09418749216283 GLOBALSTAR M037 1 25652U 99012D 26072.20856809 -.00000095 00000+0 47853-4 0 9991 2 25652 51.9995 84.7701 0002170 67.1775 13.1290 12.62462454245250 GLOBALSTAR M045 1 25676U 99019A 26072.55645872 -.00000055 00000+0 33609-3 0 9997 2 25676 51.9953 257.5017 0001047 87.0599 311.1102 12.27074692226466 GLOBALSTAR M019 1 25677U 99019B 26072.93478208 -.00000204 00000+0 -11883-2 0 9993 2 25677 51.9889 45.7702 0001462 133.3882 275.1324 12.13885032217901 GLOBALSTAR M044 1 25678U 99019C 26072.90560720 -.00000071 00000+0 17721-3 0 9991 2 25678 51.9996 30.9519 0005982 197.5036 176.5154 11.90262831203446 GLOBALSTAR M042 1 25679U 99019D 26072.97027403 -.00000074 00000+0 16886-3 0 9999 2 25679 52.0047 9.3385 0003039 126.6464 310.4441 12.22094491218249 GLOBALSTAR M025 1 25770U 99031A 26072.47872010 -.00000041 00000+0 82574-3 0 9993 2 25770 51.9794 255.4371 0001729 200.6726 181.1422 11.22560907511950 GLOBALSTAR M049 1 25771U 99031B 26072.90307476 .00000002 00000+0 23404-2 0 9993 2 25771 51.9883 302.7726 0003411 106.3928 253.7243 11.12122054147437 GLOBALSTAR M047 1 25772U 99031C 26072.57535129 -.00000039 00000+0 85190-3 0 9997 2 25772 51.9816 274.7468 0016464 9.0746 351.0355 11.31932805501618 GLOBALSTAR M052 1 25773U 99031D 26072.36675344 -.00000102 00000+0 -12298-2 0 9999 2 25773 51.9881 48.8698 0002409 258.6585 272.0555 11.15064052508537 GLOBALSTAR M035 1 25851U 99037A 26072.25229670 -.00000048 00000+0 58809-3 0 9994 2 25851 51.9943 174.9201 0013842 61.5295 310.0430 11.04541393125992 GLOBALSTAR M032 1 25852U 99037B 26072.90931920 -.00000012 00000+0 17685-2 0 9992 2 25852 51.9997 340.0481 0012209 261.8343 98.1072 11.19069174164989 GLOBALSTAR M051 1 25853U 99037C 26072.76893929 -.00000067 00000+0 10928-3 0 9997 2 25853 51.9776 110.5582 0000563 142.6779 217.4070 11.42200586163192 GLOBALSTAR M030 1 25854U 99037D 26072.81160699 -.00000050 00000+0 52150-3 0 9990 2 25854 51.9863 259.4144 0004086 147.5447 212.5622 11.55104187181202 GLOBALSTAR M048 1 25872U 99041A 26072.46375742 -.00000068 00000+0 60295-4 0 9992 2 25872 51.9378 56.7336 0013220 291.3113 245.3968 11.33862665155523 GLOBALSTAR M026 1 25873U 99041B 26072.92442443 -.00000042 00000+0 82507-3 0 9998 2 25873 52.0004 288.5393 0002119 18.5588 120.4990 11.06843227178357 GLOBALSTAR M043 1 25874U 99041C 26072.69784641 -.00000073 00000+0 -13020-3 0 9991 2 25874 51.9394 174.5618 0013489 54.3633 96.1048 11.25698027153222 GLOBALSTAR M028 1 25875U 99041D 26072.81550364 -.00000079 00000+0 13634-3 0 9995 2 25875 51.9613 109.0698 0063062 296.9889 62.4543 12.50597559223914 GLOBALSTAR M024 1 25883U 99043A 26072.89226312 -.00000060 00000+0 18253-3 0 9999 2 25883 52.0010 132.0711 0002015 170.8368 359.9713 11.10172764144817 GLOBALSTAR M027 1 25884U 99043B 26072.77043941 -.00000063 00000+0 42401-4 0 9998 2 25884 52.0190 217.9648 0021869 68.3706 291.9414 11.04374007171027 GLOBALSTAR M054 1 25885U 99043C 26072.92147186 -.00000054 00000+0 44071-3 0 9996 2 25885 52.0144 299.6631 0003978 286.6102 86.8387 11.39224886149798 GLOBALSTAR M053 1 25886U 99043D 26072.91942816 -.00000043 00000+0 73515-3 0 9992 2 25886 51.9966 261.7274 0003709 164.3022 346.6028 11.27671136149876 GLOBALSTAR M058 1 25907U 99049A 26072.79746213 -.00000070 00000+0 19782-3 0 9997 2 25907 51.9921 109.2360 0002285 79.0210 281.0882 11.93208544573729 GLOBALSTAR M050 1 25908U 99049B 26072.60201845 -.00000165 00000+0 -87218-3 0 9990 2 25908 51.9975 97.3043 0009163 207.2212 299.5325 12.07465749180732 GLOBALSTAR M033 1 25909U 99049C 26072.91318853 -.00000118 00000+0 -24972-3 0 9999 2 25909 51.9926 309.6575 0015192 98.1890 262.0681 12.20303658568674 GLOBALSTAR M055 1 25910U 99049D 26072.92901169 -.00000070 00000+0 20673-3 0 9990 2 25910 52.0029 307.2238 0006731 339.2370 20.8207 12.29441730201461 GLOBALSTAR M057 1 25943U 99058A 26072.90326310 -.00000044 00000+0 44630-3 0 9993 2 25943 51.9991 302.7453 0002032 193.3068 166.7728 12.24835562199981 GLOBALSTAR M059 1 25944U 99058B 26072.82883161 -.00000103 00000+0 -21340-3 0 9997 2 25944 52.0011 197.6941 0001161 132.7192 32.2364 11.99994452606416 GLOBALSTAR M056 1 25945U 99058C 26072.74640780 -.00000002 00000+0 99313-3 0 9999 2 25945 51.9958 192.9694 0000994 43.0463 105.3887 12.04786582195118 GLOBALSTAR M031 1 25946U 99058D 26072.92501798 -.00000140 00000+0 -49964-3 0 9996 2 25946 51.9965 68.6482 0001359 17.6367 15.4441 12.16050716197369 GLOBALSTAR M039 1 25961U 99062A 26072.93012211 -.00000119 00000+0 -83268-4 0 9998 2 25961 51.9838 167.1175 0002557 211.2611 148.8103 12.62342907214288 GLOBALSTAR M034 1 25962U 99062B 26072.95877534 -.00000079 00000+0 22663-4 0 9994 2 25962 51.9899 30.1280 0013945 190.2162 249.6731 11.79456022170225 GLOBALSTAR M029 1 25963U 99062C 26072.43627809 -.00000069 00000+0 21567-3 0 9996 2 25963 51.9794 86.5607 0002293 282.4792 225.9297 11.99909037201449 GLOBALSTAR M061 1 25964U 99062D 26072.37203785 -.00000113 00000+0 -54304-3 0 9999 2 25964 51.9781 219.2654 0006846 111.7135 263.0191 11.76777913152875 GLOBALSTAR M063 1 26081U 00008A 26072.83770642 -.00000077 00000+0 83440-4 0 9996 2 26081 51.9939 121.4013 0004978 113.0088 58.9377 11.86181473189575 GLOBALSTAR M062 1 26082U 00008B 26072.34333777 -.00000042 00000+0 40433-3 0 9993 2 26082 51.9875 24.2605 0007350 330.7993 195.8615 12.43481782530107 GLOBALSTAR M060 1 26083U 00008C 26072.32980402 -.00000153 00000+0 -62038-3 0 9994 2 26083 52.0050 22.3886 0003090 320.8801 206.0729 12.17674900185159 GLOBALSTAR M064 1 26084U 00008D 26072.42932484 -.00000077 00000+0 88648-4 0 9993 2 26084 52.0018 218.1315 0001561 180.7366 179.3464 11.88542755199114 GLOBALSTAR M065 1 31571U 07020A 26072.92568663 -.00000103 00000+0 99365-6 0 9990 2 31571 51.9880 125.2567 0010071 183.5281 348.3052 12.62021131867460 GLOBALSTAR M069 1 31573U 07020C 26072.95784659 -.00000106 00000+0 -12016-3 0 9999 2 31573 52.0028 161.6627 0001144 312.0642 219.3416 12.23468915867148 GLOBALSTAR M072 1 31574U 07020D 26072.93654426 -.00000076 00000+0 11035-3 0 9991 2 31574 51.9968 353.8300 0001505 108.0086 330.2736 11.91656059863628 GLOBALSTAR M071 1 31576U 07020F 26072.75322566 -.00000012 00000+0 77827-3 0 9991 2 31576 52.0054 195.4571 0000095 192.8176 319.9924 12.18266827527790 GLOBALSTAR M067 1 32263U 07048A 26072.96531163 -.00000076 00000+0 15507-3 0 9990 2 32263 51.9750 326.5296 0000953 157.1544 216.0839 12.40685197842974 GLOBALSTAR M070 1 32264U 07048B 26072.28790050 -.00000090 00000+0 77531-4 0 9990 2 32264 51.9773 28.7004 0000635 59.1268 87.9107 12.62331521847655 GLOBALSTAR M066 1 32265U 07048C 26072.95917318 -.00000091 00000+0 27177-4 0 9995 2 32265 51.9615 331.2879 0004315 194.7000 277.4269 12.30386782848506 GLOBALSTAR M068 1 32266U 07048D 26072.40862687 -.00000091 00000+0 70125-4 0 9995 2 32266 51.9879 201.5652 0001159 53.3892 342.2136 12.62842237851571 GLOBALSTAR M079 1 37188U 10054A 26072.95793374 -.00000098 00000+0 30926-4 0 9992 2 37188 52.0057 38.5596 0000538 107.9709 317.9805 12.62263941710527 GLOBALSTAR M074 1 37189U 10054B 26072.37276768 -.00000107 00000+0 -16152-4 0 9999 2 37189 52.0032 39.6221 0000265 75.4555 89.4760 12.62266320711057 GLOBALSTAR M076 1 37190U 10054C 26072.92832731 -.00000094 00000+0 51895-4 0 9997 2 37190 52.0047 38.1253 0000316 126.7731 284.1097 12.62270610710847 GLOBALSTAR M077 1 37191U 10054D 26072.92971235 -.00000097 00000+0 -34021-3 0 9996 2 37191 51.9988 61.1555 0000843 150.5089 247.9785 11.68156542710019 GLOBALSTAR M075 1 37192U 10054E 26072.40831536 -.00000107 00000+0 -15875-4 0 9998 2 37192 51.9938 81.8166 0000364 96.2166 50.6466 12.62264932709844 GLOBALSTAR M073 1 37193U 10054F 26072.94780127 -.00000100 00000+0 21213-4 0 9992 2 37193 52.0088 354.2028 0000579 92.7284 345.8425 12.62265390711900 GLOBALSTAR M083 1 37739U 11033A 26072.94621664 -.00000070 00000+0 18982-3 0 9990 2 37739 51.9863 302.5686 0000854 98.8866 274.0839 12.62267868680921 GLOBALSTAR M088 1 37740U 11033B 26072.36866655 -.00000103 00000+0 66111-5 0 9995 2 37740 52.0204 210.5200 0000762 104.5091 281.3304 12.62262247676397 GLOBALSTAR M091 1 37741U 11033C 26072.30449935 -.00000109 00000+0 -29329-4 0 9994 2 37741 51.9990 173.8229 0000791 107.5644 286.9526 12.62270365677173 GLOBALSTAR M085 1 37742U 11033D 26072.87570229 -.00000100 00000+0 19748-4 0 9992 2 37742 52.0111 123.2925 0000682 110.9710 60.7428 12.62269738677759 GLOBALSTAR M081 1 37743U 11033E 26072.90211074 -.00000098 00000+0 29870-4 0 9990 2 37743 51.9948 125.7573 0000526 128.8924 42.7734 12.62262909677904 GLOBALSTAR M089 1 37744U 11033F 26072.46504340 -.00000086 00000+0 96512-4 0 9997 2 37744 51.9921 81.2636 0000085 164.6059 0.0755 12.62264879678694 GLOBALSTAR M084 1 38040U 11080A 26072.92010870 -.00000080 00000+0 13154-3 0 9994 2 38040 52.0018 307.3124 0000480 86.9068 286.5188 12.62265592656737 GLOBALSTAR M080 1 38041U 11080B 26072.97078006 -.00000073 00000+0 17178-3 0 9997 2 38041 52.0071 308.8444 0001171 73.2227 300.0775 12.62267301656860 GLOBALSTAR M082 1 38042U 11080C 26072.93759798 -.00000075 00000+0 16113-3 0 9998 2 38042 52.0064 264.4348 0001154 86.0259 66.3799 12.62268428657568 GLOBALSTAR M092 1 38043U 11080D 26072.97456855 -.00000092 00000+0 65750-4 0 9992 2 38043 52.0115 354.7118 0000536 74.5883 5.8013 12.62264557656028 GLOBALSTAR M090 1 38044U 11080E 26072.53860472 -.00000075 00000+0 16085-3 0 9996 2 38044 52.0108 259.5742 0000946 99.5562 277.8860 12.62272060657639 GLOBALSTAR M086 1 38045U 11080F 26072.90736524 -.00000061 00000+0 23826-3 0 9994 2 38045 51.9888 258.5371 0001160 158.3701 350.5201 12.62284139657625 GLOBALSTAR M097 1 39072U 13005A 26072.27014213 -.00000108 00000+0 -22924-4 0 9990 2 39072 52.0042 175.3119 0000821 118.3530 241.7420 12.62265699604799 GLOBALSTAR M093 1 39073U 13005B 26072.95667124 -.00000112 00000+0 -44166-4 0 9998 2 39073 52.0100 166.5348 0000951 122.8461 237.2497 12.62263924604836 GLOBALSTAR M094 1 39074U 13005C 26072.40257030 -.00000102 00000+0 91096-5 0 9993 2 39074 51.9949 82.4342 0000539 116.2077 243.8845 12.62267180606377 GLOBALSTAR M096 1 39075U 13005D 26072.89085207 -.00000101 00000+0 14185-4 0 9994 2 39075 52.0062 129.6747 0000683 116.4715 243.6222 12.62263696605352 GLOBALSTAR M078 1 39076U 13005E 26072.30986688 -.00000092 00000+0 63384-4 0 9998 2 39076 51.9862 215.5833 0001488 77.7780 282.3253 12.62276085603904 GLOBALSTAR M095 1 39077U 13005F 26072.41567190 -.00000105 00000+0 -70398-5 0 9994 2 39077 52.0070 212.7301 0001273 101.8604 258.2406 12.62276242603775 GLOBALSTAR M087 1 52888U 22064A 26072.98336849 -.00000088 00000+0 88388-4 0 9997 2 52888 52.0027 352.2978 0000786 88.3834 271.7123 12.62267089179115